Regional Weather Roundup
Issued by NWS

Home | Current Version | Previous Version | Graphics & Text | Print | Product List | Glossary On
Versions: 1 2 3 4 5 6 7 8 9 10 11 12 13 14 15 16 17 18 19 20 21 22 23 24 25 26 27 28 29 30 31 32 33 34 35 36 37 38 39 40 41 42 43 44 45 46 47 48 49 50
935
ASUS43 KIND 170909
RWRIN

WEATHER ROUNDUP FOR INDIANA
NATIONAL WEATHER SERVICE INDIANAPOLIS IN
500 AM EDT TUE OCT 17 2017

NOTE: "FAIR" INDICATES FEW OR NO CLOUDS BELOW 12,000 FEET WITH NO
SIGNIFICANT WEATHER AND/OR OBSTRUCTIONS TO VISIBILITY.

* - STATION DOES NOT REPORT WEATHER SUCH AS PRECIPITATION OR FOG.

+ - STATION NOT QUALITY CONTROLLED BY THE NATIONAL WEATHER SERVICE.
    USE DATA WITH CAUTION...ESPECIALLY DEWPOINT AND RELATIVE
    HUMIDITY OBSERVATIONS.

INZ001>003-010>013-019-020-171000-
NORTHWEST INDIANA

CITY           SKY/WX    TMP DP  RH WIND       PRES   REMARKS
GARY /AIRPORT/ CLEAR     49  37  62 CALM      30.23S
KNOX *+        CLEAR     41  37  87 S6        30.25R
LA PORTE +     CLEAR     41  38  89 S3        30.25R
MICHIGAN CITY+ CLEAR     46  37  71 S6        30.24S
MONTICELLO +   CLEAR     43  38  80 S6        30.27S
RENSSELAER +   CLEAR     43  36  75 SW6       30.27R
VALPARAISO     CLEAR     45  38  76 S5        30.24S

$$

LMZ046-743>745-171000-
SOUTHERN LAKE MICHIGAN

STATION/POSITION TIME  TEMP    WIND        PRES    WAVE
                       AIR SEA DIR/SP/G            HT
                 (UTC) (F)     (DEG/KT/KT) (MB)    (FT)
BURNS HARBOR     0840   51     190/ 11/ 16 1023.7S
MICHIGAN CITY    0840   52     180/ 12/ 15   N/A
5NW MICH CITY    0900   54 57  220/ 16/ 19   N/A     2

$$

INZ004-005-014>016-021>024-171000-
NORTH CENTRAL INDIANA

CITY           SKY/WX    TMP DP  RH WIND       PRES   REMARKS
GOSHEN         CLEAR     43  37  79 SW8       30.25R
LOGANSPORT +   CLEAR     41  36  81 S7        30.29R
PERU/GRISSOM   CLEAR     43  38  82 SW7       30.27
SOUTH BEND     CLEAR     43  39  86 SW9       30.24S
WARSAW +       CLEAR     45  37  76 SW3       30.26S

$$

INZ006>009-017-018-025>027-171000-
NORTHEAST INDIANA

CITY           SKY/WX    TMP DP  RH WIND       PRES   REMARKS
AUBURN +       CLEAR     45  36  70 SW3       30.27R
FORT WAYNE     PTCLDY    41  36  82 SW8       30.28R
HUNTINGTON +   CLEAR     44  38  77 SW3       30.28R
KENDALLVILLE + CLEAR     44  38  80 SW7       30.26R

$$

INZ028-029-035-036-043>045-051>053-171000-
WEST CENTRAL INDIANA

CITY           SKY/WX    TMP DP  RH WIND       PRES   REMARKS
CRAWFORDSVL +  CLEAR     41  37  87 MISG      30.30R
GREENCASTLE +  CLEAR     37  36  93 CALM      30.31S
LAFAYETTE      CLEAR     41  38  89 CALM      30.29R
TERRE HAUTE    CLEAR     38  36  92 CALM      30.31S

$$

INZ030>032-037>040-046>048-054>057-064-065-171000-
CENTRAL INDIANA

CITY           SKY/WX    TMP DP  RH WIND       PRES   REMARKS
CP ATTERBURY + CLEAR     36  36 100 CALM      30.33R
FRANKFORT +    CLEAR     44  39  83 SW3       30.31R
GREENWOOD *+   CLEAR     43  41  91 CALM      30.32R
INDIANAPOLIS   CLEAR     44  38  79 SW6       30.31R
-EAGLE CREEK   CLEAR     43  37  79 CALM      30.30R
KOKOMO +       CLEAR     47  38  71 SW8       30.29S
MARION +       CLEAR     41  37  87 S5        30.30R
MT COMFORT *+  CLEAR     39  39 100 CALM      30.31R
SHELBYVILLE    CLEAR     41  37  86 S3        30.31R
ZIONSVILLE +   CLEAR     43  36  77 SW5       30.31R

$$

INZ033-034-041-042-049-050-058-059-171000-
EAST CENTRAL INDIANA

CITY           SKY/WX    TMP DP  RH WIND       PRES   REMARKS
MUNCIE         CLEAR     46  37  71 S5        30.30R
RICHMOND +     CLEAR     37  36  93 S6        30.32R

$$

INZ060-061-067>069-081>083-085>088-171000-
SOUTHWEST INDIANA

CITY           SKY/WX    TMP DP  RH WIND       PRES   REMARKS
EVANSVILLE     CLEAR     41  39  93 CALM      30.33F
HUNTINGBURG +  CLEAR     40  39  97 CALM      30.33S
WASHINGTON +   CLEAR     39  37  94 CALM      30.32R

$$

INZ062-063-066-070>080-084-089>092-171000-
SOUTH CENTRAL AND SOUTHEAST INDIANA

CITY           SKY/WX    TMP DP  RH WIND       PRES   REMARKS
BEDFORD +      CLEAR     39  37  93 CALM      30.32S FOG
BLOOMINGTON    CLEAR     38  35  89 CALM      30.32R
MADISON *+       N/A     39  37  93 CALM      30.34S
NORTH VERNON + CLEAR     36  36 100 CALM      30.34R
SEYMOUR +        N/A     37  36  93 CALM      30.33S FOG

$$





USA.gov is the U.S. government's official web portal to all federal, state and local government web resources and services.